RYR1206 LOWW-EDDP

Flight info

Callsign RYR1206
Flight time 0h 54m
Altitude 30000
Route LANUX DCT VLM DCT BEFRE DCT IVQOQ T951 YAWOY YAWOY1V
Aircraft B738/M-SABDFGRVYL/LB2

Departure

Time 2026-04-20 22:30
Airport Vienna International Airport (LOWW)

Arrival

Time 2026-04-20 23:25
Airport Leipzig/Halle Airport (EDDP)
Time Latitude Longitude Altitude Speed Heading
2026-04-20 21:38 48.11448 16.57077 607 ft 0 kts 206°
2026-04-20 22:21 48.11445 16.57074 606 ft 2 kts 206°
2026-04-20 22:21 48.11444 16.57074 606 ft 2 kts 206°
2026-04-20 22:22 48.11428 16.57062 606 ft 4 kts 206°
2026-04-20 22:22 48.11391 16.57038 606 ft 4 kts 189°
2026-04-20 22:22 48.11348 16.57063 606 ft 8 kts 171°
2026-04-20 22:22 48.11284 16.57066 605 ft 11 kts 149°
2026-04-20 22:23 48.11245 16.57167 605 ft 11 kts 115°
2026-04-20 22:23 48.11207 16.57281 604 ft 12 kts 118°
2026-04-20 22:23 48.11164 16.57408 602 ft 16 kts 115°
2026-04-20 22:23 48.11120 16.57548 600 ft 13 kts 116°
2026-04-20 22:24 48.11078 16.57674 598 ft 12 kts 117°
2026-04-20 22:24 48.11038 16.57796 599 ft 13 kts 119°
2026-04-20 22:24 48.10965 16.57923 599 ft 18 kts 135°
2026-04-20 22:24 48.10847 16.58018 599 ft 19 kts 165°
2026-04-20 22:25 48.10815 16.58031 600 ft 18 kts 165°
2026-04-20 22:25 48.10711 16.58076 601 ft 17 kts 165°
2026-04-20 22:25 48.10602 16.58122 602 ft 14 kts 165°
2026-04-20 22:25 48.10487 16.58170 603 ft 20 kts 164°
2026-04-20 22:26 48.10334 16.58235 605 ft 23 kts 165°
2026-04-20 22:26 48.10176 16.58303 604 ft 20 kts 165°
2026-04-20 22:26 48.10075 16.58243 605 ft 14 kts 224°
2026-04-20 22:27 48.09849 16.58301 604 ft 21 kts 162°
2026-04-20 22:27 48.09692 16.58367 602 ft 26 kts 165°
2026-04-20 22:27 48.09491 16.58453 604 ft 30 kts 165°
2026-04-20 22:27 48.09299 16.58534 600 ft 28 kts 165°
2026-04-20 22:28 48.09111 16.58613 596 ft 27 kts 165°
2026-04-20 22:28 48.08932 16.58689 591 ft 25 kts 164°
2026-04-20 22:28 48.08821 16.58771 585 ft 17 kts 131°
2026-04-20 22:28 48.08790 16.58942 580 ft 16 kts 77°
2026-04-20 22:29 48.08846 16.59067 580 ft 12 kts 41°
2026-04-20 22:29 48.08911 16.59124 581 ft 9 kts 352°
2026-04-20 22:29 48.08968 16.59098 581 ft 7 kts 343°
2026-04-20 22:29 48.09032 16.59070 583 ft 21 kts 345°
2026-04-20 22:30 48.09394 16.58914 593 ft 86 kts 344°
2026-04-20 22:30 48.10176 16.58583 600 ft 144 kts 345°
2026-04-20 22:30 48.11239 16.58126 916 ft 163 kts 343°
2026-04-20 22:30 48.12338 16.57656 1518 ft 170 kts 344°
2026-04-20 22:31 48.13513 16.57422 2159 ft 175 kts
2026-04-20 22:31 48.14560 16.58306 2720 ft 179 kts 39°
2026-04-20 22:31 48.15583 16.59374 3273 ft 179 kts 24°
2026-04-20 22:31 48.16705 16.60202 3691 ft 192 kts 26°
2026-04-20 22:32 48.17962 16.61195 4006 ft 214 kts 26°
2026-04-20 22:32 48.19304 16.62292 4567 ft 225 kts 29°
2026-04-20 22:32 48.20687 16.63558 4951 ft 244 kts 29°
2026-04-20 22:32 48.22173 16.64900 5397 ft 260 kts 28°
2026-04-20 22:33 48.23875 16.65883 6065 ft 263 kts
2026-04-20 22:33 48.25642 16.65438 6776 ft 264 kts 332°
2026-04-20 22:33 48.27138 16.63865 7573 ft 265 kts 323°
2026-04-20 22:33 48.28725 16.62443 8325 ft 270 kts 332°
2026-04-20 22:34 48.30365 16.61116 9091 ft 273 kts 329°
2026-04-20 22:34 48.32014 16.59682 9866 ft 276 kts 329°
2026-04-20 22:34 48.33680 16.58220 10579 ft 282 kts 329°
2026-04-20 22:34 48.35423 16.56687 10862 ft 305 kts 329°
2026-04-20 22:35 48.37290 16.55036 11449 ft 316 kts 328°
2026-04-20 22:35 48.39196 16.53360 12278 ft 320 kts 328°
2026-04-20 22:35 48.41109 16.51667 13101 ft 323 kts 328°
2026-04-20 22:35 48.43041 16.49942 13975 ft 325 kts 328°
2026-04-20 22:36 48.44953 16.48109 14866 ft 325 kts 321°
2026-04-20 22:36 48.46521 16.45723 15739 ft 324 kts 305°
2026-04-20 22:36 48.47628 16.42794 16604 ft 324 kts 296°
2026-04-20 22:36 48.48590 16.39777 17472 ft 324 kts 297°
2026-04-20 22:37 48.49610 16.36749 18303 ft 325 kts 298°
2026-04-20 22:37 48.50634 16.33706 19102 ft 326 kts 297°
2026-04-20 22:37 48.51640 16.30646 19882 ft 327 kts 297°
2026-04-20 22:37 48.52658 16.27538 20644 ft 328 kts 297°
2026-04-20 22:38 48.53664 16.24466 21371 ft 330 kts 297°
2026-04-20 22:38 48.54676 16.21372 22069 ft 331 kts 298°
2026-04-20 22:38 48.55678 16.18304 22737 ft 332 kts 298°
2026-04-20 22:38 48.56782 16.15189 23399 ft 333 kts 302°
2026-04-20 22:39 48.58052 16.12368 24017 ft 334 kts 309°
2026-04-20 22:39 48.59585 16.09749 24644 ft 334 kts 313°
2026-04-20 22:39 48.61154 16.07196 25240 ft 336 kts 313°
2026-04-20 22:39 48.62734 16.04554 25826 ft 337 kts 313°
2026-04-20 22:40 48.64298 16.01950 26389 ft 338 kts 313°
2026-04-20 22:40 48.65886 15.99337 26927 ft 340 kts 314°
2026-04-20 22:40 48.67506 15.96680 27462 ft 341 kts 314°
2026-04-20 22:40 48.69091 15.94077 27961 ft 342 kts 314°
2026-04-20 22:41 48.70701 15.91431 28449 ft 344 kts 314°
2026-04-20 22:41 48.72328 15.88760 28922 ft 345 kts 314°
2026-04-20 22:41 48.73962 15.86075 29472 ft 344 kts 315°
2026-04-20 22:41 48.75550 15.83464 30001 ft 342 kts 315°
2026-04-20 22:42 48.78771 15.78163 30049 ft 337 kts 315°
2026-04-20 22:42 48.81929 15.72957 30047 ft 335 kts 315°
2026-04-20 22:43 48.85081 15.67751 30047 ft 337 kts 315°
2026-04-20 22:43 48.88342 15.62707 30046 ft 335 kts 322°
2026-04-20 22:44 48.92380 15.59270 30048 ft 337 kts 334°
2026-04-20 22:44 48.96664 15.56414 30047 ft 337 kts 333°
2026-04-20 22:45 49.00953 15.53512 30047 ft 339 kts 333°
2026-04-20 22:45 49.05264 15.50634 30047 ft 343 kts 332°
2026-04-20 22:46 49.09662 15.47697 30047 ft 346 kts 331°
2026-04-20 22:46 49.14124 15.44719 30047 ft 350 kts 330°
2026-04-20 22:47 49.18555 15.41760 30047 ft 348 kts 331°
2026-04-20 22:47 49.23008 15.38779 30047 ft 348 kts 330°
2026-04-20 22:48 49.27401 15.35833 30047 ft 348 kts 331°
2026-04-20 22:48 49.31826 15.32860 30055 ft 348 kts 330°
2026-04-20 22:49 49.36259 15.29876 30063 ft 348 kts 330°
2026-04-20 22:49 49.36316 15.29837 30063 ft 348 kts 330°
2026-04-20 22:50 49.36363 15.29805 30063 ft 348 kts 330°
2026-04-20 22:50 49.39692 15.27560 30068 ft 348 kts 330°
2026-04-20 22:51 49.44094 15.24587 30073 ft 347 kts 330°
2026-04-20 22:51 49.48495 15.21607 30074 ft 347 kts 330°
2026-04-20 22:52 49.52914 15.18611 30074 ft 347 kts 330°
2026-04-20 22:52 49.57342 15.15601 30074 ft 347 kts 330°
2026-04-20 22:53 49.61722 15.12619 30074 ft 347 kts 330°
2026-04-20 22:53 49.66129 15.09611 30076 ft 348 kts 330°
2026-04-20 22:54 49.70661 15.06854 30079 ft 354 kts 337°
2026-04-20 22:54 49.75523 15.05338 30081 ft 359 kts 341°
2026-04-20 22:55 49.80381 15.03838 30087 ft 359 kts 341°
2026-04-20 22:55 49.85278 15.02383 29746 ft 353 kts 341°
2026-04-20 22:56 49.87655 15.01684 29315 ft 348 kts 340°
2026-04-20 22:56 49.89993 15.00992 28821 ft 346 kts 340°
2026-04-20 22:56 49.92350 15.00293 28251 ft 345 kts 340°
2026-04-20 22:56 49.94695 14.99601 27690 ft 345 kts 340°
2026-04-20 22:57 49.97034 14.98913 27126 ft 344 kts 340°
2026-04-20 22:57 49.99423 14.98208 26546 ft 344 kts 340°
2026-04-20 22:57 50.01773 14.97516 25984 ft 344 kts 340°
2026-04-20 22:57 50.04103 14.96829 25440 ft 344 kts 340°
2026-04-20 22:58 50.06444 14.96139 24895 ft 344 kts 340°
2026-04-20 22:59 50.15805 14.93374 22837 ft 342 kts 341°
2026-04-20 22:59 50.18133 14.92684 22336 ft 342 kts 341°
2026-04-20 22:59 50.20455 14.91995 21837 ft 342 kts 341°
2026-04-20 22:59 50.22810 14.91297 21330 ft 342 kts 341°
2026-04-20 23:00 50.25117 14.90612 20833 ft 341 kts 341°
2026-04-20 23:00 50.27455 14.89916 20330 ft 341 kts 342°
2026-04-20 23:00 50.29756 14.89231 19833 ft 341 kts 342°
2026-04-20 23:00 50.32084 14.88538 19332 ft 341 kts 342°
2026-04-20 23:01 50.34427 14.87842 18827 ft 341 kts 342°
2026-04-20 23:01 50.36741 14.87150 18328 ft 341 kts 342°
2026-04-20 23:01 50.39059 14.86455 17830 ft 341 kts 343°
2026-04-20 23:01 50.41384 14.85761 17354 ft 340 kts 343°
2026-04-20 23:02 50.43693 14.85070 16880 ft 339 kts 343°
2026-04-20 23:02 50.45982 14.84384 16409 ft 339 kts 344°
2026-04-20 23:02 50.48296 14.83690 15932 ft 338 kts 344°
2026-04-20 23:02 50.50589 14.83001 15459 ft 338 kts 344°
2026-04-20 23:03 50.52903 14.82306 14981 ft 337 kts 345°
2026-04-20 23:03 50.55211 14.81612 14503 ft 337 kts 345°
2026-04-20 23:03 50.57501 14.80922 14029 ft 337 kts 345°
2026-04-20 23:03 50.59775 14.80236 13557 ft 336 kts 346°
2026-04-20 23:04 50.62081 14.79541 13078 ft 336 kts 346°
2026-04-20 23:04 50.64376 14.78847 12601 ft 335 kts 346°
2026-04-20 23:04 50.66635 14.78165 12131 ft 335 kts 346°
2026-04-20 23:04 50.68906 14.77477 11657 ft 334 kts 347°
2026-04-20 23:05 50.71138 14.76803 11171 ft 323 kts 347°
2026-04-20 23:05 50.73068 14.76220 10745 ft 312 kts 347°
2026-04-20 23:05 50.75175 14.75581 10331 ft 298 kts 346°
2026-04-20 23:05 50.77158 14.74978 9870 ft 288 kts 346°
2026-04-20 23:06 50.79105 14.74385 9308 ft 286 kts 347°
2026-04-20 23:06 50.81030 14.73798 9070 ft 280 kts 347°
2026-04-20 23:06 50.82884 14.73234 8939 ft 277 kts 347°
2026-04-20 23:06 50.84787 14.72652 8804 ft 279 kts 347°
2026-04-20 23:07 50.86684 14.72074 8666 ft 278 kts 347°
2026-04-20 23:07 50.88495 14.71521 8534 ft 276 kts 347°
2026-04-20 23:07 50.90348 14.70955 8398 ft 275 kts 347°
2026-04-20 23:07 50.92220 14.70250 8254 ft 273 kts 337°
2026-04-20 23:08 50.93794 14.68683 8113 ft 269 kts 313°
2026-04-20 23:08 50.94819 14.66285 7982 ft 264 kts 294°
2026-04-20 23:08 50.95509 14.63791 7858 ft 264 kts 294°
2026-04-20 23:08 50.96283 14.61140 7719 ft 263 kts 295°
2026-04-20 23:09 50.97039 14.58522 7673 ft 260 kts 294°
2026-04-20 23:09 50.97787 14.55887 7662 ft 262 kts 294°
2026-04-20 23:09 50.98528 14.53267 7650 ft 262 kts 294°
2026-04-20 23:09 50.99272 14.50628 7636 ft 262 kts 294°
2026-04-20 23:10 51.00015 14.47987 7623 ft 262 kts 294°
2026-04-20 23:10 51.00749 14.45376 7610 ft 262 kts 294°
2026-04-20 23:10 51.01488 14.42742 7597 ft 262 kts 294°
2026-04-20 23:10 51.02229 14.40098 7584 ft 262 kts 295°
2026-04-20 23:11 51.02970 14.37450 7571 ft 261 kts 295°
2026-04-20 23:11 51.03703 14.34830 7558 ft 261 kts 294°
2026-04-20 23:11 51.04444 14.32177 7545 ft 261 kts 294°
2026-04-20 23:11 51.05175 14.29554 7533 ft 261 kts 294°
2026-04-20 23:12 51.05910 14.26918 7520 ft 261 kts 294°
2026-04-20 23:12 51.06644 14.24279 7508 ft 261 kts 294°
2026-04-20 23:12 51.07386 14.21611 7495 ft 261 kts 294°
2026-04-20 23:12 51.08116 14.18981 7483 ft 261 kts 294°
2026-04-20 23:13 51.08851 14.16333 7471 ft 261 kts 294°
2026-04-20 23:13 51.09598 14.13635 7458 ft 261 kts 294°
2026-04-20 23:13 51.10319 14.11033 7446 ft 261 kts 294°
2026-04-20 23:13 51.11049 14.08391 7433 ft 261 kts 294°
2026-04-20 23:14 51.11780 14.05744 7420 ft 261 kts 294°
2026-04-20 23:14 51.12513 14.03087 7408 ft 261 kts 294°
2026-04-20 23:14 51.13240 14.00449 7395 ft 261 kts 294°
2026-04-20 23:14 51.13972 13.97789 7383 ft 261 kts 294°
2026-04-20 23:15 51.14698 13.95146 7370 ft 261 kts 294°
2026-04-20 23:15 51.15422 13.92510 7358 ft 261 kts 294°
2026-04-20 23:15 51.16140 13.89890 7345 ft 261 kts 294°
2026-04-20 23:15 51.16790 13.87519 7334 ft 261 kts 294°
2026-04-20 23:16 51.17510 13.84889 7322 ft 261 kts 294°
2026-04-20 23:16 51.18749 13.80355 7301 ft 261 kts 294°
2026-04-20 23:16 51.29988 13.38836 7114 ft 260 kts 294°
2026-04-20 23:16 51.40404 12.99632 6933 ft 258 kts 291°
2026-04-20 23:17 51.41100 12.96989 6760 ft 257 kts 291°
2026-04-20 23:17 51.41797 12.94339 6401 ft 257 kts 291°
2026-04-20 23:17 51.42486 12.91713 6045 ft 253 kts 292°
2026-04-20 23:17 51.43145 12.89206 5703 ft 248 kts 292°
2026-04-20 23:18 51.43809 12.86675 5358 ft 249 kts 292°
2026-04-20 23:18 51.44463 12.84180 5020 ft 249 kts 292°
2026-04-20 23:18 51.45138 12.81602 4667 ft 249 kts 293°
2026-04-20 23:18 51.45643 12.79050 4321 ft 249 kts 278°
2026-04-20 23:19 51.45583 12.76343 3985 ft 249 kts 266°
2026-04-20 23:19 51.45425 12.73621 3641 ft 249 kts 268°
2026-04-20 23:19 51.45300 12.70984 3377 ft 246 kts 268°
2026-04-20 23:19 51.45183 12.68269 3392 ft 245 kts 268°
2026-04-20 23:20 51.45067 12.65530 3412 ft 245 kts 268°
2026-04-20 23:20 51.44953 12.62847 3411 ft 237 kts 268°
2026-04-20 23:20 51.44842 12.60251 3408 ft 227 kts 268°
2026-04-20 23:20 51.44737 12.57793 3418 ft 216 kts 268°
2026-04-20 23:21 51.44635 12.55428 3426 ft 206 kts 268°
2026-04-20 23:21 51.44540 12.53237 3411 ft 185 kts 269°
2026-04-20 23:21 51.44455 12.51265 3420 ft 175 kts 269°
2026-04-20 23:21 51.44370 12.49303 3255 ft 178 kts 269°
2026-04-20 23:22 51.44284 12.47329 3027 ft 176 kts 269°
2026-04-20 23:22 51.44197 12.45383 2795 ft 176 kts 269°
2026-04-20 23:22 51.44110 12.43405 2551 ft 176 kts 269°
2026-04-20 23:22 51.44024 12.41458 2311 ft 176 kts 269°
2026-04-20 23:23 51.43937 12.39537 2085 ft 165 kts 269°
2026-04-20 23:23 51.43858 12.37765 1849 ft 155 kts 269°
2026-04-20 23:23 51.43782 12.36054 1677 ft 150 kts 269°
2026-04-20 23:23 51.43707 12.34384 1445 ft 148 kts 269°
2026-04-20 23:24 51.43634 12.32765 1245 ft 147 kts 269°
2026-04-20 23:24 51.43560 12.31127 1048 ft 147 kts 269°
2026-04-20 23:24 51.43486 12.29498 854 ft 146 kts 269°
2026-04-20 23:24 51.43411 12.27865 664 ft 145 kts 268°
2026-04-20 23:25 51.43339 12.26283 474 ft 134 kts 269°
2026-04-20 23:25 51.43290 12.25101 469 ft 73 kts 265°
2026-04-20 23:25 51.43262 12.24511 469 ft 46 kts 266°
2026-04-20 23:25 51.43234 12.23993 469 ft 45 kts 257°
2026-04-20 23:26 51.43124 12.23627 469 ft 31 kts 236°
2026-04-20 23:26 51.43103 12.23577 469 ft 4 kts 236°
2026-04-20 23:26 51.43083 12.23529 469 ft 5 kts 236°
2026-04-20 23:26 51.43064 12.23485 469 ft 4 kts 235°
2026-04-20 23:27 51.43042 12.23442 469 ft 6 kts 207°
2026-04-20 23:27 51.42995 12.23436 469 ft 7 kts 178°
2026-04-20 23:27 51.42934 12.23439 469 ft 11 kts 191°
2026-04-20 23:27 51.42893 12.23300 469 ft 18 kts 265°
2026-04-20 23:28 51.42884 12.23085 469 ft 20 kts 265°
2026-04-20 23:28 51.42871 12.22818 469 ft 27 kts 266°
2026-04-20 23:28 51.42857 12.22514 469 ft 26 kts 265°
2026-04-20 23:28 51.42844 12.22236 469 ft 22 kts 264°
2026-04-20 23:29 51.42832 12.21980 469 ft 22 kts 265°
2026-04-20 23:29 51.42822 12.21753 469 ft 19 kts 264°
2026-04-20 23:29 51.42812 12.21550 469 ft 16 kts 266°
2026-04-20 23:29 51.42803 12.21361 469 ft 17 kts 265°
2026-04-20 23:30 51.42756 12.21226 469 ft 12 kts 199°
2026-04-20 23:30 51.42675 12.21190 469 ft 12 kts 194°
2026-04-20 23:30 51.42580 12.21148 469 ft 15 kts 195°
2026-04-20 23:30 51.42476 12.21102 469 ft 16 kts 195°
2026-04-20 23:31 51.42366 12.21053 469 ft 17 kts 195°
2026-04-20 23:31 51.42242 12.21001 469 ft 19 kts 194°
2026-04-20 23:31 51.42146 12.21054 469 ft 15 kts 104°
2026-04-20 23:31 51.42123 12.21199 469 ft 11 kts 105°
2026-04-20 23:32 51.42097 12.21301 469 ft 8 kts 156°
2026-04-20 23:32 51.42046 12.21282 469 ft 7 kts 196°
2026-04-20 23:32 51.42002 12.21262 469 ft 5 kts 195°
2026-04-20 23:32 51.41990 12.21257 469 ft 0 kts 195°
2026-04-20 23:33 51.42006 12.21264 469 ft 4 kts 194°
2026-04-20 23:33 51.42009 12.21265 469 ft 0 kts 194°